Location: Hopville
(44.8032°N, 123.1329°W)
Time: 04:05:00
(UTC+00:00)

Lacrosse 4 Rocket - Pass Details

Date: 24 January 2021
Orbit: 536 x 621 km, 68.0° (Epoch: 26 February)

Event Time Altitude Azimuth Distance (km) Brightness Sun altitude
Rises 15:01:38 0° 245° (WSW) 2,770 4.5 -7.0°
Reaches altitude 10° 15:04:13 10° 261° (W) 1,893 3.5 -6.6°
Maximum altitude 15:07:36 23° 314° (NW) 1,286 2.7 -6.0°
Drops below altitude 10° 15:11:04 10° 6° (N) 1,945 4.0 -5.5°
Sets 15:13:46 0° 22° (NNE) 2,867 5.0 -5.0°
